Date String (YYYY-MM-DD hh:mm:ss) UTC,Instrument flags,absolute air pressure of the measurement (hPa),sample flow rate (lpm),inlet stack bypass flow (lpm),air temperature of the measurement (°C),ambient temperature measured by the external sensor (°C),aerosol sample conditioner tube jacket temperature (°C),OPC LED temperature (°C),internal box temperature (°C),relative humidity of the measurement (%),span deviation,mass concentration of particles derived from Lorenz-Mie calculation of OPC scattering (μg/m³),mass concentration of particles derived from Lorenz-Mie calculation of OPC scattering (μg/m³),mass concentration of particles derived from Lorenz-Mie calculation of OPC scattering (μg/m³)
DateTimeUTC,F1_M11,P_M11,Q1_M11,Q2_M11,T1_M11,T2_M11,T3_M11,T4_M11,T5_M11,U1_M11,ZSPAN_M11,X0_M11,X2_M11,X1_M11
2024-04-13 07:00:00,SystemResetWarning,0827.0,5.00,000.00,026.1,025.3,000.0,034.5,027.9,009.8,0000.0,0010.97,0003.23,0001.81
2024-04-13 07:01:00,SystemResetWarning,0827.0,4.99,000.00,026.1,025.3,000.0,034.5,027.9,009.8,0000.0,0010.96,0003.28,0001.84
2024-04-13 07:02:00,SystemResetWarning,0827.0,5.00,000.00,026.1,025.3,000.0,034.5,027.9,009.8,0000.0,0010.86,0003.31,0001.84
2024-04-13 07:03:00,SystemResetWarning,0827.0,5.00,000.00,026.1,025.3,000.0,034.5,027.9,009.8,0000.0,0011.17,0003.32,0001.82
2024-04-13 07:04:00,SystemResetWarning,0827.0,4.99,000.00,026.1,025.4,000.0,034.5,027.9,009.8,0000.0,0011.11,0003.35,0001.83
2024-04-13 07:05:00,SystemResetWarning,0826.9,5.00,000.00,026.1,025.4,000.0,034.5,027.9,009.7,0000.0,0011.12,0003.38,0001.82
2024-04-13 07:06:00,SystemResetWarning,0827.0,5.00,000.00,026.1,025.4,000.0,034.5,027.9,009.8,0000.0,0011.06,0003.43,0001.83
2024-04-13 07:07:00,SystemResetWarning,0826.9,5.01,000.00,026.1,025.4,000.0,034.5,027.9,009.8,0000.0,0010.23,0003.50,0001.82
2024-04-13 07:08:00,SystemResetWarning,0826.9,5.00,000.00,026.1,025.4,000.0,034.5,027.9,009.8,0000.0,0010.12,0003.53,0001.82
2024-04-13 07:09:00,SystemResetWarning,0826.9,5.00,000.00,026.1,025.4,000.0,034.5,027.9,009.8,0000.0,0009.97,0003.54,0001.82
2024-04-13 07:10:00,SystemResetWarning,0826.9,4.99,000.00,026.1,025.4,000.0,034.5,027.9,009.8,0000.0,0010.16,0003.56,0001.84
2024-04-13 07:11:00,SystemResetWarning,0826.8,5.00,000.00,026.1,025.4,000.0,034.5,027.9,009.7,0000.0,0010.32,0003.57,0001.85
2024-04-13 07:12:00,SystemResetWarning,0826.8,5.00,000.00,026.1,025.4,000.0,034.5,027.9,009.8,0000.0,0010.24,0003.58,0001.84
2024-04-13 07:13:00,SystemResetWarning,0826.8,5.00,000.00,026.1,025.4,000.0,034.5,027.9,009.8,0000.0,0010.28,0003.60,0001.86
2024-04-13 07:14:00,SystemResetWarning,0826.8,4.99,000.00,026.1,025.4,000.0,034.5,027.9,009.8,0000.0,0010.17,0003.61,0001.87
2024-04-13 07:15:00,SystemResetWarning,0826.8,5.01,000.00,026.1,025.4,000.0,034.5,027.9,009.6,0000.0,0010.25,0003.65,0001.87
2024-04-13 07:16:00,SystemResetWarning,0826.9,5.00,000.00,026.1,025.4,000.0,034.5,027.9,009.7,0000.0,0009.80,0003.64,0001.87
2024-04-13 07:17:00,SystemResetWarning,0826.9,5.00,000.00,026.1,025.4,000.0,034.5,027.9,009.8,0000.0,0008.80,0003.57,0001.86
2024-04-13 07:18:00,SystemResetWarning,0826.9,5.00,000.00,026.1,025.4,000.0,034.5,027.9,009.7,0000.0,0008.68,0003.54,0001.86
2024-04-13 07:19:00,SystemResetWarning,0826.9,5.01,000.00,026.1,025.4,000.0,034.5,027.9,009.7,0000.0,0008.45,0003.50,0001.87
2024-04-13 07:20:00,SystemResetWarning,0826.9,5.01,000.00,026.1,025.4,000.0,034.5,027.9,009.6,0000.0,0008.28,0003.48,0001.87
2024-04-13 07:21:00,SystemResetWarning,0826.9,4.99,000.00,026.1,025.4,000.0,034.5,027.9,009.5,0000.0,0008.27,0003.49,0001.86
2024-04-13 07:22:00,SystemResetWarning,0826.9,4.99,000.00,026.1,025.4,000.0,034.5,027.9,009.5,0000.0,0008.25,0003.48,0001.85
2024-04-13 07:23:00,SystemResetWarning,0826.9,5.01,000.00,026.1,025.4,000.0,034.5,027.9,009.6,0000.0,0008.23,0003.51,0001.85
2024-04-13 07:24:00,SystemResetWarning,0826.9,5.01,000.00,026.1,025.4,000.0,034.5,027.9,009.5,0000.0,0008.12,0003.49,0001.82
2024-04-13 07:25:00,SystemResetWarning,0826.9,5.00,000.00,026.1,025.4,000.0,034.6,027.9,009.6,0000.0,0008.04,0003.49,0001.81
2024-04-13 07:26:00,SystemResetWarning,0826.9,4.99,000.00,026.1,025.4,000.0,034.6,027.9,009.6,0000.0,0008.00,0003.43,0001.82
2024-04-13 07:27:00,SystemResetWarning,0826.9,4.99,000.00,026.1,025.4,000.0,034.6,027.9,009.6,0000.0,0008.70,0003.41,0001.82
2024-04-13 07:28:00,SystemResetWarning,0826.9,4.99,000.00,026.1,025.4,000.0,034.6,027.9,009.7,0000.0,0009.88,0003.48,0001.84
2024-04-13 07:29:00,SystemResetWarning,0826.9,4.99,000.00,026.1,025.4,000.0,034.6,027.9,010.5,0000.0,0011.43,0003.52,0001.84
2024-04-13 07:30:00,SystemResetWarning,0827.0,5.00,000.00,026.2,025.4,000.0,034.6,028.0,010.1,0000.0,0011.73,0003.57,0001.84
2024-04-13 07:31:00,SystemResetWarning,0827.0,5.00,000.00,026.2,025.4,000.0,034.6,028.0,009.9,0000.0,0012.66,0003.59,0001.84
2024-04-13 07:32:00,SystemResetWarning,0827.0,5.01,000.00,026.2,025.4,000.0,034.6,028.0,009.9,0000.0,0012.92,0003.59,0001.83
2024-04-13 07:33:00,SystemResetWarning,0827.0,5.00,000.00,026.2,025.4,000.0,034.6,028.0,009.9,0000.0,0013.18,0003.60,0001.86
2024-04-13 07:34:00,SystemResetWarning,0826.9,5.01,000.00,026.2,025.4,000.0,034.6,028.0,010.0,0000.0,0013.30,0003.61,0001.87
2024-04-13 07:35:00,SystemResetWarning,0826.9,4.99,000.00,026.2,025.4,000.0,034.6,028.0,010.1,0000.0,0013.38,0003.58,0001.88
2024-04-13 07:36:00,SystemResetWarning,0827.0,4.99,000.00,026.2,025.4,000.0,034.6,028.0,010.2,0000.0,0013.23,0003.53,0001.89
2024-04-13 07:37:00,SystemResetWarning,0827.0,5.00,000.00,026.2,025.4,000.0,034.6,028.0,010.4,0000.0,0013.18,0003.54,0001.89
2024-04-13 07:38:00,SystemResetWarning,0827.0,5.00,000.00,026.2,025.4,000.0,034.6,028.0,010.4,0000.0,0012.46,0003.53,0001.89
2024-04-13 07:39:00,SystemResetWarning,0826.9,5.00,000.00,026.2,025.4,000.0,034.6,028.0,010.3,0000.0,0011.14,0003.46,0001.87
2024-04-13 07:40:00,SystemResetWarning,0826.9,5.00,000.00,026.2,025.4,000.0,034.6,028.0,010.2,0000.0,0010.03,0003.42,0001.88
2024-04-13 07:41:00,SystemResetWarning,0827.0,5.00,000.00,026.2,025.4,000.0,034.6,028.0,010.1,0000.0,0009.44,0003.39,0001.89
2024-04-13 07:42:00,SystemResetWarning,0826.9,5.01,000.00,026.2,025.4,000.0,034.6,028.0,010.1,0000.0,0008.67,0003.35,0001.88
2024-04-13 07:43:00,SystemResetWarning,0826.9,5.00,000.00,026.2,025.4,000.0,034.6,028.0,009.9,0000.0,0008.09,0003.34,0001.88
2024-04-13 07:44:00,SystemResetWarning,0826.9,4.99,000.00,026.2,025.4,000.0,034.6,027.9,010.0,0000.0,0007.83,0003.36,0001.87
2024-04-13 07:45:00,SystemResetWarning,0826.9,5.00,000.00,026.2,025.4,000.0,034.6,028.0,010.1,0000.0,0007.88,0003.37,0001.88
2024-04-13 07:46:00,SystemResetWarning,0826.9,4.99,000.00,026.2,025.4,000.0,034.6,028.0,010.0,0000.0,0007.81,0003.41,0001.89
2024-04-13 07:47:00,SystemResetWarning,0826.8,5.01,000.00,026.2,025.4,000.0,034.6,028.0,009.9,0000.0,0007.90,0003.44,0001.89
2024-04-13 07:48:00,SystemResetWarning,0826.8,5.00,000.00,026.2,025.4,000.0,034.6,028.0,010.0,0000.0,0008.50,0003.43,0001.88
2024-04-13 07:49:00,SystemResetWarning,0826.8,5.01,000.00,026.2,025.5,000.0,034.6,028.0,009.9,0000.0,0008.87,0003.44,0001.88
2024-04-13 07:50:00,SystemResetWarning,0826.8,4.98,000.00,026.2,025.4,000.0,034.6,028.0,009.9,0000.0,0008.93,0003.48,0001.89
2024-04-13 07:51:00,SystemResetWarning,0826.8,4.99,000.00,026.2,025.4,000.0,034.6,028.0,009.8,0000.0,0008.87,0003.51,0001.89
2024-04-13 07:52:00,SystemResetWarning,0826.8,5.00,000.00,026.2,025.4,000.0,034.6,028.0,009.9,0000.0,0009.19,0003.57,0001.89
2024-04-13 07:53:00,SystemResetWarning,0826.8,5.00,000.00,026.2,025.4,000.0,034.6,028.0,010.0,0000.0,0009.21,0003.56,0001.88
2024-04-13 07:54:00,SystemResetWarning,0826.8,5.01,000.00,026.2,025.4,000.0,034.6,028.0,010.0,0000.0,0009.40,0003.58,0001.89
2024-04-13 07:55:00,SystemResetWarning,0826.8,5.01,000.00,026.2,025.4,000.0,034.6,028.0,010.0,0000.0,0009.52,0003.54,0001.88
2024-04-13 07:56:00,SystemResetWarning,0826.8,5.00,000.00,026.2,025.4,000.0,034.6,028.0,010.0,0000.0,0009.53,0003.51,0001.87
2024-04-13 07:57:00,SystemResetWarning,0826.8,5.00,000.00,026.2,025.4,000.0,034.6,028.0,010.0,0000.0,0009.68,0003.56,0001.86
2024-04-13 07:58:00,SystemResetWarning,0826.8,5.00,000.00,026.2,025.4,000.0,034.6,028.0,009.8,0000.0,0009.86,0003.60,0001.87
2024-04-13 07:59:00,SystemResetWarning,0826.8,4.99,000.00,026.2,025.4,000.0,034.6,027.9,009.8,0000.0,0010.02,0003.61,0001.87
